Location: Beutels
(47.8767°N, 9.8584°E)
Time: 06:34:56
(UTC+00:00)

Cosmos 1400 Rocket - Pass Details

Date: 19 May 2025
Orbit: 484 x 519 km, 81.1° (Epoch: 22 June)

Event Time Altitude Azimuth Distance (km) Brightness Sun altitude
Rises 19:31:18 0° 173° (S) 2,558 5.8 -5.5°
Reaches altitude 10° 19:33:29 10° 166° (SSE) 1,677 4.8 -5.8°
Maximum altitude 19:36:56 40° 96° (E) 732 3.1 -6.2°
Drops below altitude 10° 19:40:24 10° 25° (NNE) 1,680 5.5 -6.7°
Sets 19:42:35 0° 18° (NNE) 2,565 6.5 -6.9°
